Location: Palomar Mountain Lodge
(33.3110°N, 116.8495°W)
Time: 06:09:55
(UTC-07:00)

CENTAUR R/B - Pass Details

Date: 19 May 2017
Orbit: 830 x 1359 km, 63.5° (Epoch: 14 May)

Event Time Altitude Azimuth Distance (km) Brightness Sun altitude
Rises 22:01:53 0° 332° (NNW) 4,165 7.1 -24.1°
Reaches altitude 10° 22:04:38 10° 336° (NNW) 3,256 6.2 -24.5°
Maximum altitude 22:12:38 65° 57° (ENE) 1,454 3.2 -25.6°
Enters shadow 22:15:13 46° 117° (ESE) 1,751 3.3 -25.9°
